Temperature
21 21 21 21 20 20 19 19 18 18 16 16 17 17 17 17 17 17 17 17 17 17 17 17 17 17 17 17 17 17 17 17 17 18 17 17 17 17 17 17 17 17 17
22 22 22 22 21 21 20 19 19 18 18 17 17 17 17 16 16 16 17 17 17 17 17 17 17 17 17 17 17 17 17 17 17 17 17 18 17 17 17 17 17 17 17
22 22 22 22 22 21 21 20 20 19 18 18 17 17 17 17 16 16 16 17 17 17 17 17 16 16 17 17 17 17 17 17 17 17 17 17 17 17 17 17 17 17 17
22 22 22 22 22 21 21 21 20 20 19 18 17 17 17 17 16 16 16 16 17 17 17 16 16 16 17 17 17 17 17 17 17 17 17 17 17 17 17 17 17 17 17
22 21 21 21 21 21 21 21 21 20 19 18 18 17 17 17 16 16 16 16 16 16 16 16 16 16 16 17 17 17 17 17 17 16 16 17 17 16 17 17 17 17 17
21 21 20 21 21 21 20 20 20 20 19 19 18 17 16 16 16 16 16 15 16 16 16 16 16 16 16 16 16 16 16 16 17 16 16 16 16 16 16 17 17 17 17
21 20 19 20 20 20 20 20 19 19 19 18 18 17 16 16 16 16 15 15 15 16 16 16 16 16 16 16 16 16 16 16 16 16 16 16 16 16 16 17 17 17 17
20 19 19 19 19 19 19 19 19 18 18 17 17 17 16 15 15 15 15 14 14 15 15 16 16 16 16 16 16 16 16 16 16 16 16 16 16 16 17 17 17 17 17
19 19 18 18 18 17 17 17 17 17 17 17 16 15 15 15 15 15 15 15 15 15 15 15 15 16 16 16 16 16 16 16 16 16 16 16 16 16 16 17 17 17 17
18 18 18 17 17 17 17 16 16 16 16 16 16 14 14 15 15 15 14 15 15 15 15 15 15 15 15 15 16 16 16 15 16 16 16 16 16 16 16 16 17 17 17
17 17 17 17 16 17 17 16 14 14 14 15 15 14 14 14 14 14 14 14 14 14 14 14 14 14 14 15 15 15 15 15 15 15 15 15 16 16 16 16 16 16 16
16 16 16 16 16 16 16 15 14 14 14 14 14 14 14 14 14 14 13 13 13 13 13 13 13 13 13 14 14 15 15 16 15 15 15 15 15 16 16 16 16 16 16
14 14 14 14 15 15 15 14 14 14 14 14 14 14 14 14 14 14 14 14 13 13 13 13 13 13 13 14 14 14 15 15 16 16 15 15 15 15 15 16 16 16 16
14 14 14 14 14 14 14 14 13 14 13 14 14 14 14 14 14 14 14 13 13 13 13 13 13 13 12 13 13 14 15 15 15 15 15 15 15 15 15 15 15 16 16
13 13 13 13 14 14 13 13 13 13 13 13 13 13 13 13 13 14 14 13 14 14 13 13 13 13 12 12 13 13 14 14 14 14 14 14 15 15 15 15 15 15 16
12 12 13 13 13 13 13 13 13 13 13 13 13 13 13 13 13 13 13 13 14 13 13 13 13 13 13 13 13 13 13 13 14 14 14 14 14 14 14 14 14 15 15
10 11 12 12 13 13 13 13 13 13 13 13 12 13 13 13 13 13 13 13 13 13 12 12 12 13 13 13 13 13 13 13 13 13 14 14 14 14 14 14 14 14 15
9 10 10 11 11 12 12 12 12 12 12 12 12 12 12 12 12 13 13 13 13 12 12 12 12 12 12 12 13 13 13 13 13 13 13 14 14 14 14 14 14 14 14
8 8 8 9 9 9 10 11 12 12 12 12 12 12 12 12 12 12 12 12 12 12 12 12 12 12 12 12 12 12 12 12 13 13 13 13 13 13 13 14 14 14 14
7 7 7 6 7 7 8 9 10 11 11 11 11 11 11 11 11 11 11 11 12 12 11 11 11 12 11 12 12 12 12 12 12 12 13 13 13 13 13 13 13 13 13
6 6 6 6 6 6 5 6 6 7 8 8 8 8 9 10 10 10 10 11 11 11 11 11 11 11 11 11 11 11 11 12 12 12 12 12 13 13 13 13 13 13 13
5 5 5 5 5 5 5 5 4 5 5 6 6 7 8 8 8 9 9 10 10 11 10 10 10 11 11 11 11 10 10 11 12 12 12 12 12 12 12 13 13 13 13
4 4 4 4 4 4 4 4 4 4 4 4 5 6 6 7 7 8 8 9 10 10 10 10 10 10 11 11 10 10 10 10 11 11 12 12 12 12 12 12 12 12 12
3 3 3 3 3 3 3 2 2 3 3 3 3 4 5 6 6 7 8 8 9 9 9 9 9 10 10 10 10 10 10 10 10 10 10 11 10 11 11 12 12 12 12
2 1 1 1 1 1 1 2 1 1 2 2 2 3 3 4 5 6 6 7 7 8 9 9 9 9 10 10 9 10 9 9 10 10 10 9 9 10 10 11 11 11 11
1 0 0 0 -0 -0 -0 -0 0 0 1 1 1 2 2 3 4 5 5 6 7 7 8 9 9 9 9 9 9 9 9 9 9 9 9 9 9 9 9 9 10 10 10
Wind_Speed
4 9 15 15 14 12 11 10 9 6 6 8 7 6 6 7 7 6 6 6 6 5 4 5 5 5 4 4 5 6 6 6 5 6 6 5 6 8 8 6 8 10 9
8 12 15 15 14 13 12 11 10 9 7 8 7 7 6 5 7 8 7 6 6 6 6 6 5 5 5 4 4 4 5 5 4 4 4 4 5 7 8 7 9 10 9
8 12 14 16 16 15 14 13 12 11 9 8 8 7 6 5 4 4 7 7 8 8 8 7 6 6 7 5 5 5 6 6 5 4 4 3 4 6 8 7 8 9 9
9 13 14 17 16 15 15 13 13 12 11 10 8 7 5 4 4 4 4 7 9 9 9 8 6 6 6 6 6 6 7 7 6 5 3 4 5 6 7 8 8 9 9
8 13 15 17 17 16 15 14 14 13 11 10 9 8 7 5 5 5 5 5 7 8 8 9 8 7 7 7 7 7 7 7 6 4 3 6 8 9 9 9 9 9 9
6 9 12 15 14 12 12 12 13 12 11 10 8 8 8 7 6 6 8 5 5 6 7 8 8 7 7 7 7 8 9 9 7 4 3 4 11 12 12 11 10 9 10
5 4 7 9 9 9 10 10 11 11 11 10 9 9 9 8 7 8 8 8 6 4 5 5 6 6 7 7 7 8 9 9 6 5 4 4 10 14 13 12 10 10 9
7 5 4 5 5 5 6 7 8 9 9 8 8 8 6 9 10 8 7 6 5 5 5 5 5 6 7 8 8 9 10 10 7 7 6 6 10 14 15 14 12 11 9
7 6 5 2 1 3 4 5 6 7 7 7 8 8 6 7 9 10 7 5 6 7 7 6 5 6 6 7 8 9 10 11 9 8 7 7 12 15 15 15 14 12 10
10 8 7 6 4 3 4 5 6 6 6 7 7 6 6 6 7 6 7 7 8 9 9 9 7 6 6 7 7 8 10 11 10 10 9 8 13 15 15 15 14 12 11
11 10 8 8 7 4 4 5 6 7 7 7 6 6 6 5 6 6 8 10 11 10 10 10 10 9 9 9 8 8 9 10 10 10 11 12 14 16 16 16 15 13 12
11 10 10 8 8 10 7 2 3 3 6 7 7 8 8 8 8 9 11 14 13 12 13 13 13 13 12 10 10 11 10 10 10 10 12 15 15 17 17 17 16 15 15
16 17 14 10 10 10 7 6 5 5 6 7 8 8 9 8 9 9 8 10 10 11 11 11 11 11 10 10 9 10 10 10 10 11 14 17 18 19 18 18 18 17 16
18 19 18 14 13 12 9 6 6 4 4 3 6 8 6 3 3 3 3 6 6 7 6 6 6 8 9 11 11 9 9 9 10 10 14 18 18 19 19 19 20 18 17
20 20 19 18 17 14 10 7 6 4 4 4 5 7 5 3 4 4 3 4 4 5 4 3 3 6 7 7 9 8 7 8 10 10 12 18 20 20 20 20 21 20 19
18 18 18 19 18 16 12 12 9 10 10 7 7 8 7 5 4 5 5 4 4 5 5 4 6 5 6 7 8 9 8 8 9 10 12 16 22 21 20 20 21 21 21
15 16 18 17 17 16 15 13 12 14 15 10 9 10 8 7 5 4 5 5 5 7 7 5 6 4 5 5 6 7 8 7 7 9 11 12 16 19 19 19 20 22 22
12 14 16 16 17 15 12 12 13 15 14 12 16 16 13 9 7 4 5 6 6 6 4 6 7 5 5 5 5 6 5 6 8 7 7 7 8 10 14 16 19 22 23
9 10 12 14 14 13 10 11 12 14 14 15 16 16 19 15 10 5 5 6 6 5 6 6 7 6 5 5 5 5 5 5 6 6 5 5 7 9 10 13 17 19 21
10 10 9 10 11 12 11 10 9 10 11 14 15 17 22 20 16 7 6 7 6 6 6 5 7 6 5 5 4 4 5 5 5 5 6 5 6 9 10 9 12 13 16
15 13 13 13 12 10 7 7 9 10 10 10 9 18 20 22 21 12 8 7 7 6 7 7 5 6 6 4 1 3 4 5 5 6 5 5 5 6 9 9 9 8 10
19 20 18 16 14 11 5 4 4 4 5 7 8 13 18 21 21 16 14 10 8 6 7 6 5 4 4 5 4 2 2 4 3 3 4 5 5 3 4 6 7 7 8
17 17 16 17 17 14 8 5 5 5 5 6 12 14 16 21 21 19 16 13 9 7 7 7 6 6 5 4 4 4 3 4 2 2 2 2 3 4 4 4 4 6 9
15 14 15 14 15 14 9 6 5 5 6 7 9 12 15 17 19 20 16 15 10 7 7 6 6 5 5 4 3 3 3 3 2 1 3 3 3 1 2 4 4 4 6
16 13 15 15 15 14 11 11 8 8 8 9 10 12 14 15 16 19 18 16 12 8 8 7 6 5 4 4 4 3 2 1 2 2 1 3 3 3 1 2 5 5 6
14 14 16 17 15 13 12 12 12 13 15 14 14 13 12 13 14 17 19 18 16 11 9 8 8 8 6 5 4 3 4 4 3 3 2 3 2 2 3 2 3 4 5
Wind_Direction
167 172 167 169 168 166 160 156 157 165 138 131 140 160 167 167 166 164 161 159 159 171 182 177 175 171 166 153 146 150 152 134 122 117 114 115 119 122 115 100 117 108 101
152 171 171 172 172 171 170 169 167 172 156 142 162 175 181 184 185 190 195 191 192 196 200 200 193 189 189 169 162 158 158 147 150 136 128 130 137 133 126 107 99 101 101
143 169 175 176 176 176 177 177 175 174 171 168 176 178 182 195 201 226 210 205 210 210 207 207 202 196 200 182 179 181 178 171 174 173 171 169 168 152 139 126 114 111 108
152 170 178 181 180 180 181 182 183 180 180 180 183 181 180 194 210 241 247 223 209 210 211 213 210 200 210 201 197 196 193 186 192 190 182 210 200 166 149 137 126 120 112
158 171 181 181 182 183 184 187 189 189 191 191 193 190 196 206 227 235 241 223 204 205 204 208 209 204 208 208 209 210 209 202 206 205 209 226 212 178 162 146 134 124 116
160 171 178 180 182 185 190 194 196 197 199 202 198 208 208 201 224 236 217 187 184 197 196 199 205 202 208 216 217 217 214 213 209 210 251 228 184 176 168 157 145 135 125
115 134 166 176 182 188 196 201 203 205 210 207 206 211 211 199 213 231 205 181 180 202 206 202 200 206 217 224 223 221 222 226 213 220 236 210 189 179 172 167 160 152 138
109 111 133 168 181 193 206 214 215 216 219 219 220 207 209 224 210 226 216 186 181 207 225 227 225 222 228 233 230 223 221 225 214 228 231 219 205 186 179 176 174 167 156
80 71 53 42 181 194 217 236 236 231 225 229 235 221 203 239 223 213 216 209 205 215 224 233 242 243 241 241 238 232 228 225 214 226 233 233 206 193 187 180 179 177 173
53 49 35 18 350 296 256 239 230 235 233 237 243 230 219 236 253 229 214 210 211 217 223 222 225 243 251 252 250 243 238 235 225 229 232 238 216 201 197 188 184 183 184
38 34 37 34 17 341 268 249 227 230 231 236 238 231 223 216 234 237 234 224 227 222 221 220 218 223 233 243 248 249 244 236 229 228 230 236 221 207 202 195 188 186 187
20 19 22 14 18 23 13 329 261 272 257 240 236 231 221 212 227 242 238 235 239 226 221 222 228 228 230 237 246 249 242 231 224 225 226 229 220 210 204 199 192 189 189
15 11 4 0 17 25 21 24 2 322 280 247 256 260 250 227 231 243 235 231 220 224 229 235 238 235 227 232 243 248 245 237 228 224 223 225 223 218 211 203 197 193 193
20 14 9 8 9 7 10 12 355 334 333 303 277 289 279 269 259 259 239 236 227 231 236 238 234 228 228 233 238 243 241 236 232 230 227 224 213 211 212 204 201 199 198
20 12 7 12 11 4 3 354 349 343 338 326 309 310 293 274 272 268 267 270 261 252 253 259 250 240 228 227 233 234 233 231 227 225 224 224 211 206 210 204 205 203 202
17 10 5 13 7 4 4 359 352 347 337 328 325 318 305 276 260 258 255 259 261 257 253 246 244 239 235 235 236 235 232 230 223 220 214 214 214 211 212 208 210 210 206
18 11 10 10 7 6 3 358 356 354 349 337 326 320 310 297 282 269 267 267 264 269 269 261 254 242 253 256 254 246 236 226 215 213 208 200 208 214 216 212 215 218 213
18 14 7 7 7 5 3 360 357 355 353 349 340 326 308 287 272 258 254 257 261 263 257 256 251 247 242 246 257 260 244 231 214 210 204 197 200 209 217 218 217 218 218
4 10 11 8 5 3 357 359 1 359 353 346 344 339 327 307 279 244 243 252 260 256 252 246 240 218 230 241 245 256 251 241 231 216 216 213 213 204 204 215 221 219 223
350 355 358 1 358 359 355 352 357 1 355 349 347 346 339 332 311 280 263 266 264 258 260 250 238 214 216 225 244 264 260 247 240 227 223 217 215 212 204 201 220 225 225
352 349 345 349 343 342 343 343 347 354 348 343 342 339 342 339 332 319 285 262 257 244 250 245 228 223 220 195 169 269 273 260 243 233 231 228 222 215 203 198 200 208 217
353 354 348 339 329 323 319 306 304 307 316 318 329 334 340 336 329 320 307 279 250 235 239 238 228 204 202 179 163 178 276 296 272 254 241 237 242 230 208 198 183 189 202
3 1 355 347 345 338 327 319 310 316 323 335 342 341 338 333 330 325 317 298 261 229 220 211 213 205 189 191 185 162 175 235 295 321 308 264 234 215 204 184 174 184 183
1 352 349 347 343 339 336 331 336 359 351 338 335 328 326 326 325 322 319 310 277 238 224 208 199 193 169 182 180 176 158 193 176 286 337 350 342 250 190 165 153 145 149
349 352 347 343 339 336 334 344 0 359 344 329 328 323 322 322 321 319 319 320 303 269 228 206 194 175 171 175 181 172 131 145 147 142 269 324 348 351 12 154 140 138 145
350 355 349 347 343 343 355 5 2 347 339 335 332 325 323 319 317 317 317 316 305 294 255 201 184 171 172 171 176 183 156 169 178 146 178 240 271 316 339 354 123 141 139
Height
1519 1519 1519 1518 1519 1519 1520 1520 1521 1521 1522 1522 1523 1523 1524 1525 1527 1527 1527 1528 1529 1529 1530 1530 1530 1530 1531 1532 1532 1533 1534 1534 1535 1535 1536 1536 1536 1536 1536 1537 1538 1537 1538
1520 1520 1519 1519 1519 1519 1519 1519 1520 1521 1521 1521 1522 1523 1523 1524 1525 1526 1527 1527 1527 1528 1528 1529 1529 1529 1531 1531 1532 1532 1533 1534 1535 1535 1536 1536 1537 1537 1537 1538 1538 1538 1538
1520 1520 1520 1520 1520 1520 1520 1519 1519 1519 1520 1520 1521 1522 1522 1523 1524 1525 1525 1525 1526 1526 1527 1528 1528 1528 1530 1530 1531 1531 1533 1534 1535 1535 1536 1536 1537 1537 1537 1537 1538 1537 1538
1520 1520 1521 1521 1521 1520 1520 1519 1519 1519 1519 1520 1520 1521 1521 1522 1523 1523 1524 1524 1525 1525 1526 1526 1527 1527 1529 1529 1530 1530 1531 1533 1534 1534 1535 1536 1536 1537 1537 1537 1537 1537 1537
1521 1521 1522 1522 1522 1521 1521 1520 1519 1519 1519 1519 1520 1520 1521 1522 1522 1523 1523 1524 1524 1524 1524 1525 1526 1526 1527 1528 1529 1529 1530 1532 1532 1533 1533 1534 1535 1536 1536 1536 1537 1537 1537
1522 1522 1523 1523 1523 1522 1521 1520 1519 1519 1519 1518 1518 1519 1519 1520 1521 1522 1522 1523 1523 1523 1523 1524 1525 1525 1525 1526 1527 1527 1528 1530 1531 1531 1532 1533 1534 1535 1535 1536 1536 1536 1537
1523 1522 1523 1523 1523 1522 1520 1519 1519 1518 1518 1517 1517 1518 1518 1518 1519 1520 1521 1522 1522 1522 1522 1522 1523 1523 1524 1525 1525 1526 1527 1528 1528 1529 1531 1532 1532 1533 1534 1535 1535 1535 1536
1524 1523 1523 1523 1522 1521 1520 1519 1519 1518 1517 1517 1516 1516 1517 1517 1518 1519 1520 1520 1520 1521 1521 1521 1521 1521 1522 1522 1523 1524 1525 1526 1526 1528 1529 1530 1531 1532 1533 1533 1534 1534 1534
1525 1524 1523 1523 1522 1521 1520 1519 1518 1517 1516 1516 1515 1515 1515 1516 1517 1518 1518 1518 1518 1519 1519 1519 1519 1520 1520 1520 1521 1522 1523 1523 1524 1525 1527 1527 1528 1530 1531 1531 1532 1533 1533
1525 1524 1523 1522 1521 1520 1519 1518 1517 1516 1515 1514 1514 1514 1514 1514 1515 1516 1515 1515 1516 1516 1516 1517 1517 1517 1518 1518 1519 1519 1520 1521 1521 1523 1524 1525 1526 1527 1528 1529 1530 1531 1531
1527 1527 1525 1523 1521 1520 1518 1517 1516 1515 1514 1513 1512 1513 1513 1513 1513 1513 1512 1513 1513 1513 1513 1514 1514 1514 1515 1515 1516 1516 1516 1517 1518 1519 1521 1522 1523 1524 1526 1527 1528 1528 1529
1530 1529 1527 1525 1522 1520 1518 1516 1515 1514 1513 1512 1511 1511 1511 1511 1511 1511 1511 1511 1511 1510 1510 1510 1510 1511 1511 1511 1511 1512 1512 1513 1514 1516 1517 1519 1520 1521 1523 1524 1526 1526 1527
1530 1529 1528 1527 1523 1520 1517 1516 1515 1513 1512 1511 1510 1509 1510 1509 1509 1509 1508 1508 1509 1508 1507 1507 1507 1506 1506 1505 1506 1506 1507 1508 1509 1511 1513 1514 1516 1518 1520 1521 1523 1524 1524
1531 1529 1527 1524 1521 1520 1518 1517 1515 1513 1511 1510 1509 1508 1507 1507 1507 1506 1505 1505 1505 1505 1505 1504 1503 1502 1502 1501 1501 1501 1502 1503 1505 1506 1507 1509 1511 1513 1516 1517 1519 1520 1521
1531 1529 1526 1524 1521 1519 1517 1516 1515 1513 1511 1510 1508 1507 1505 1504 1503 1502 1502 1501 1501 1501 1500 1499 1499 1498 1498 1497 1497 1496 1497 1498 1500 1501 1502 1504 1507 1509 1511 1513 1514 1516 1517
1533 1530 1527 1524 1522 1520 1517 1515 1513 1511 1510 1509 1507 1506 1504 1502 1500 1499 1498 1497 1496 1495 1495 1495 1494 1493 1493 1493 1493 1492 1493 1493 1495 1496 1498 1499 1502 1505 1507 1508 1510 1511 1513
1535 1532 1527 1524 1522 1519 1516 1514 1512 1510 1508 1506 1505 1504 1502 1500 1498 1496 1494 1492 1491 1490 1490 1489 1489 1488 1488 1488 1488 1488 1488 1488 1489 1491 1493 1494 1496 1499 1502 1503 1504 1506 1508
1535 1531 1528 1525 1521 1518 1515 1512 1509 1508 1506 1504 1501 1500 1499 1497 1495 1492 1490 1488 1487 1486 1485 1484 1483 1482 1482 1482 1483 1483 1483 1483 1484 1485 1487 1489 1490 1492 1495 1497 1499 1501 1503
1536 1531 1527 1524 1520 1517 1513 1509 1506 1503 1502 1501 1499 1496 1494 1492 1490 1488 1486 1484 1482 1480 1479 1478 1477 1477 1476 1477 1477 1477 1478 1478 1479 1480 1481 1483 1484 1486 1488 1491 1494 1495 1498
1538 1533 1528 1524 1519 1515 1511 1508 1502 1499 1497 1495 1493 1491 1488 1486 1485 1483 1481 1478 1476 1474 1473 1472 1472 1471 1470 1471 1471 1471 1472 1473 1473 1474 1476 1477 1478 1479 1481 1484 1487 1489 1492
1538 1533 1529 1523 1518 1513 1509 1505 1500 1494 1492 1490 1487 1484 1481 1478 1476 1474 1474 1472 1470 1468 1467 1466 1466 1465 1465 1465 1464 1465 1466 1467 1468 1468 1469 1471 1472 1473 1475 1477 1480 1484 1486
1539 1534 1529 1524 1519 1514 1508 1503 1499 1493 1490 1488 1484 1479 1474 1471 1468 1466 1464 1463 1463 1461 1460 1460 1460 1459 1459 1459 1459 1460 1460 1462 1462 1463 1464 1465 1466 1467 1469 1471 1474 1477 1480
1539 1534 1529 1524 1518 1512 1507 1501 1494 1489 1484 1480 1475 1470 1467 1464 1461 1459 1456 1455 1455 1454 1452 1452 1453 1454 1454 1454 1455 1456 1456 1456 1456 1458 1459 1460 1461 1462 1463 1465 1467 1470 1474
1539 1533 1527 1521 1515 1510 1505 1498 1492 1485 1480 1475 1471 1466 1463 1459 1455 1452 1449 1448 1448 1448 1446 1444 1445 1447 1449 1449 1451 1451 1452 1453 1454 1454 1455 1455 1456 1458 1459 1460 1462 1465 1468
1537 1530 1523 1516 1510 1505 1501 1495 1489 1483 1478 1472 1467 1462 1457 1453 1449 1446 1444 1442 1440 1441 1440 1438 1438 1440 1442 1444 1446 1447 1447 1449 1449 1451 1452 1453 1454 1455 1456 1456 1458 1460 1463
1535 1528 1520 1513 1508 1504 1498 1491 1486 1480 1474 1467 1461 1456 1451 1447 1443 1440 1438 1436 1434 1433 1434 1432 1432 1433 1436 1439 1441 1442 1443 1444 1446 1447 1448 1450 1452 1453 1454 1454 1456 1457 1459